Location: Brno
(49.2000°N, 16.6330°E)
Time: 04:08:14
(UTC+02:00)

Vanguard 3 - Pass Details

Date: 04 August 2021
Orbit: 510 x 3260 km, 33.3° (Epoch: 16 September)

Event Time Altitude Azimuth Distance (km) Brightness Sun altitude
Rises 18:32:19 0° 236° (SW) 5,273 12.1 17.2°
Reaches altitude 10° 18:35:33 10° 229° (SW) 4,608 11.7 16.7°
Maximum altitude 18:48:19 43° 165° (SSE) 3,617 10.4 14.6°
Drops below altitude 10° 19:05:44 10° 103° (ESE) 6,199 11.0 11.8°
Sets 19:10:56 0° 98° (E) 7,195 11.3 11.0°
